STARLINK-1352 (45536 NORAD) Tracking and Keplerian Element Data

This shows tracking and keplerian element data for the satellite.

Feedback or suggestion? Click here.




ElementValue
Catalog45536
NameSTARLINK-1352
Epoch Orbit1349
Epoch Day197.16667824
Epoch Year2020
RAAN10.1353
Inclination53.0003
Eccentricity0.000125
Argument of Perigee103.3649
Mean Anonmoly174.1182
Mean Motion15.05595136
Decay Rate-0.00036002
L11 45536U 20025F 20197.16667824 -.00036002 00000-0 -24633-2 0 9994
L22 45536 53.0003 10.1353 0001250 103.3649 174.1182 15.05595136 13494

Live tracking and technical data element details for STARLINK-1352 (NORAD 45536). STARLINK-1352 can be tracked NOW for your location showing map with azimuth and elevation plus other details from your city location.

Track the satellite on the map from your city or location and see movement details for azimuth, elevation, latitude, longitude, range, height, and movement on the map or in text.







IsCatalogInMostPopularTable: catalog: 45536, numindb: 20
Update: records affected: 1



GetName: 45536 STARLINK-1352

Hit Count: updated at: Thu, 16 Jul 2020 02:42:55 GMT